Location: Unspecified
(0.0000°N, 0.0000°E)
Time: 07:40:26
(UTC+00:00)

Hubble Space Telescope - Pass Details

Date: 16 May 2021
Orbit: 535 x 539 km, 28.5° (Epoch: 21 June)

Event Time Altitude Azimuth Distance (km) Brightness Sun altitude
Exits shadow 04:12:44 22° 348° (NNW) 1,181 2.5 -24.4°
Drops below altitude 10° 04:15:18 10° 25° (NNE) 1,770 4.0 -23.8°
Sets 04:17:53 0° 40° (NE) 2,657 5.3 -23.2°
